Volver al catálogo

COSMOS 716

ActivoMilitarLEO
NORAD 7683·PAYLOAD·🇷🇺 Russia

Lanzado Feb 28, 1975 desde Plesetsk Cosmodrome

Loading…

Próximos Pases (próximas 24 horas)

TLE

ActualizadoSource: Space-Track

Época: Sep 14, 2026, 04:26 UTC

1 07683U 75016F   26257.18486731  .00000012  00000-0  20024-3 0  9997
2 07683  74.0042 156.6436 0021365 103.8301  50.2090 12.42449410337726

Sigue COSMOS 716 en tiempo real con AllMySat

Download on the App Store